Regional Weather Roundup
Issued by NWS Upton, NY

Current Version | Previous Version | Graphics & Text | Print | Product List | Glossary Off
Versions: 1 2 3 4 5 6 7 8 9 10 11 12 13 14 15 16 17 18 19 20 21 22 23 24 25 26

000
ASUS41 KOKX 182008
RWROKX

REGIONAL WEATHER ROUNDUP
NATIONAL WEATHER SERVICE NEW YORK NY
300 PM EST WED JAN 18 2017

NOTE: "FAIR" INDICATES FEW OR NO CLOUDS BELOW 12,000 FEET WITH NO
SIGNIFICANT WEATHER AND/OR OBSTRUCTIONS TO VISIBILITY.

NYZ071-072-176-178-NJZ106-104-182100-
NEW YORK CITY METRO AREA

CITY           SKY/WX    TMP DP  RH WIND       PRES   REMARKS
Central Park   CLOUDY    40  37  89 N7        29.98R
Wall St Helipt CLOUDY    42  38  85 VRB3      29.97R
Bronx Bot Gard NOT AVBL
LaGuardia APRT CLOUDY    42  37  82 N9        29.96R
Kennedy INTL   CLOUDY    42  36  79 N14       29.96R
Breezy Point   NOT AVBL
Newark/Liberty CLOUDY    42  38  85 N9        29.96R
Teterboro      CLOUDY    42  37  82 N6        29.95R FOG
$$

NYZ177-179-078>081-182100-
LONG ISLAND NEW YORK

CITY           SKY/WX    TMP DP  RH WIND       PRES   REMARKS
Jones Beach    NOT AVBL
Matinecock PT  NOT AVBL
Farmingdale    LGT RAIN  40  38  93 N9        29.95R FOG     WCI  34
MacArthur/ISP  LGT RAIN  39  38  96 N12       29.94R FOG     WCI  32
Shirley        LGT RAIN  39  39 100 N10       29.95R FOG     WCI  32
Westhampton    CLOUDY    41  38  89 N10       29.95R
Southampton    NOT AVBL
Bridgehampton  NOT AVBL
East Hampton   CLOUDY    40  38  95 N10G17    29.92R FOG     WCI  33
Montauk          N/A     42  41  96 N10       29.93R
$$

NYZ052-065-067-182100-
HUDSON VALLEY

CITY           SKY/WX    TMP DP  RH WIND       PRES   REMARKS
White Plains   CLOUDY    39  36  89 N8        29.94R FOG     WCI  33
Newburgh       CLOUDY    39  39 100 NE6       29.96R WCI  35
Montgomery     CLOUDY    40  37  89 N5        29.94F
Poughkeepsie   CLOUDY    39  36  89 CALM      29.95S
Albany         DRZL/FOG  36  34  92 E3        29.97S VSB 1
$$

NJZ001-105-106-008-010-013-015-019>022-104-182100-
NEW JERSEY

CITY           SKY/WX    TMP DP  RH WIND       PRES   REMARKS
Newark/Liberty CLOUDY    42  38  85 N9        29.96R
Teterboro      CLOUDY    42  37  82 N6        29.95R FOG
Caldwell       CLOUDY    41  37  86 VRB5      29.96R
Somerville     CLOUDY    43  37  79 N6        29.93S
Linden         CLOUDY    42  37  82 CALM      29.96R
Sussex         CLOUDY    40  37  89 E3        29.94F
Andover          N/A     38  36  92 CALM      29.94S
Trenton        CLOUDY    44  40  85 N8        29.94R
Millville      CLOUDY    49  44  83 N8        29.93R
Atlantic City  CLOUDY    46  40  79 N14       29.93R
Wrightstown    CLOUDY    42  41  94 NW9       29.92R
Toms River     CLOUDY    41  40  96 N8        29.95R FOG
Belmar         CLOUDY    40  39  97 N10       29.95R FOG     WCI  33
$$

PAZ047>061-062-071-182100-
EASTERN PENNSYLVANIA

CITY           SKY/WX    TMP DP  RH WIND       PRES   REMARKS
Philadelphia   CLOUDY    48  41  76 N9        29.95R
Allentown      CLOUDY    44  38  79 E6        29.95R
Scranton       CLOUDY    41  39  93 NW7       29.94R
$$

CTZ002-004>006-009-010-012-RIZ004-006-007-MAZ004-011-015-182100-
SOUTHERN NEW ENGLAND
 IN CT

CITY           SKY/WX    TMP DP  RH WIND       PRES   REMARKS
Bradley INTL   CLOUDY    36  35  96 N10       29.97R WCI  28
Hartford       CLOUDY    38  36  92 N9        29.97R WCI  31
Danbury        CLOUDY    38  35  89 N6        29.96R WCI  33
Wtrbury/Oxford CLOUDY    37  34  87 NE6       29.95R WCI  33
Bridgeport     CLOUDY    41  36  82 N9        29.96R
Meriden        CLOUDY    39  35  86 N7        29.96R WCI  34
New Haven      CLOUDY    39  36  89 N13       29.95R WCI  31
Chester        CLOUDY    39  37  93 N8        29.94R FOG     WCI  34
Groton         CLOUDY    42  39  89 N8        29.93R
Wilimantic     CLOUDY    39  36  89 N8        29.97R WCI  33

 IN RI

CITY           SKY/WX    TMP DP  RH WIND       PRES   REMARKS
Providence     LGT RAIN  41  38  89 NE12      29.95R FOG
Block Island   NOT AVBL
Westerly       CLOUDY    43  38  82 N8        29.93R
 IN MA

CITY           SKY/WX    TMP DP  RH WIND       PRES   REMARKS
Boston         DRIZZLE   39  39 100 E15       29.99R FOG     WCI  31
Worcester      FOG       31  29  92 NE9       29.94R VSB 1/4 WCI  23
Westfield      CLOUDY    35  34  96 N8        29.98R WCI  29
Provincetown   LGT RAIN  40  39  97 E13       29.96R WCI  32
Nantucket      LGT RAIN  42  40  92 NE16      29.87R FOG
$$

ANZ330-335-338-340-345-350-353-355-182100-
COASTAL MARINE OBSERVATIONS


STATION/POSITION TIME  SKY/WX   TEMP    WIND        PRES    VSBY  WAVE
                                AIR SEA DIR/SP/G                  HT/PER
                 (UTC)          (F)     (DEG/KT/KT) (MB)    (MI)  (FT/S)
NY HARB ENTRANCE 1850            41 44  360/ 14/ 16 1013.0          4/ 6
20 S FIRE ISLAND 1850            41 45   10/ 16/ 19 1011.8          6/ 7
GREAT SOUTH BAY  NOT AVBL
23 SSW MONTAUK P 1850            43 47   20/ 19/ 21 1011.3          7/ 7
15 E BARNEGAT LI 1930               47                N/A           5/ 7
HUDSON CANYON    1850            50 53              1009.0          6/ 9
KINGS POINT      1942            40 38              1014.1
EXECUTION ROCKS  1945            40     350/ 10/ 12   N/A
CENTRAL LI SOUND 1915            41      30/ 12/ 14   N/A           2/ 5
EASTERN LI SOUND NOT AVBL
ROBBINS REEF     1942            40     360/ 14/ 15 1014.6
$$


>>>>>>>>>>>>>>>>>>>>>>>>>>>> KEY <<<<<<<<<<<<<<<<<<<<<<<<<<<
>                                                          <
>     SKY/WX - Sky Condition/Present Weather               <
>     TMP    - Temperature in Fahrenheit                   <
>     DP     - Dew Point in Fahrenheit                     <
>     RH     - Relative Humidity in Percent                <
>     WIND   - Direction (from) and Speed in MPH           <
>     PRES   - Mean Sea Level Pressure (inches of Hg)      <
>     WCI    - Wind Chill Index                            <
>     VSB    - VISIBILITY IN MILES                         <
>     HX     - HEAT INDEX                                  <
>     TC     - TEMPERATURE IN CELSIUS                      <
>     VRB    - VARIABLE WIND DIRECTION                     <
>                                                          <
>>>>>>>>>>>>>>>>>>>>>>>>>>>> KEY <<<<<<<<<<<<<<<<<<<<<<<<<<<




USA.gov is the U.S. government's official web portal to all federal, state and local government web resources and services.